Simultaneous Nadir Overpasses (SNOs) Predictions

Prediction of SNOs between AQUA and METOP-C Satellite Orbit:

Table of predicted SNOs for the next 14.0 days since TLE Epoch: 10/12/2024
Index Date (AQUA) Time (AQUA) Lat,Lon (AQUA) SZA (AQUA ) Date (METOP-C) Time (METOP-C) Lat,Lon (METOP-C) SZA (METOP-C ) Distance(km) Time Diff (sec)
1 10/13/2024 12:29:54 -75.55, 172.95 96.44 10/13/2024 12:28:43 -75.49, 171.67 96.51 36.22 71
2 10/13/2024 13:19:20 75.77, -20.07 83.80 10/13/2024 13:19:17 75.77, -20.10 83.80 1.03 3
3 10/13/2024 14:08:43 -75.94, 147.10 96.04 10/13/2024 14:09:55 -75.94, 147.77 96.02 18.10 72
4 10/16/2024 02:59:53 -75.74, -45.06 95.28 10/16/2024 02:58:57 -75.76, -45.06 95.27 1.73 56
5 10/16/2024 03:49:15 75.79, 122.48 84.78 10/16/2024 03:49:36 75.80, 122.42 84.79 2.57 21
6 10/18/2024 17:29:43 -75.77, 97.45 94.30 10/18/2024 17:29:16 -75.76, 97.36 94.32 3.18 27
7 10/18/2024 18:19:05 75.83, -95.04 85.76 10/18/2024 18:19:54 75.84, -95.04 85.78 1.55 49
8 10/21/2024 07:10:05 75.73, 72.54 86.58 10/21/2024 07:08:52 75.72, 72.33 86.56 5.93 73
9 10/21/2024 07:59:26 -75.78,-119.96 93.36 10/21/2024 07:59:32 -75.81,-120.05 93.34 3.39 6
10 10/21/2024 08:48:55 76.19, 46.44 87.05 10/21/2024 08:50:03 76.21, 48.64 87.11 58.41 68
11 10/23/2024 21:39:44 75.77,-144.94 87.54 10/23/2024 21:39:08 75.77,-145.06 87.53 3.32 36
12 10/23/2024 22:29:05 -75.83, 22.56 92.40 10/23/2024 22:29:49 -75.82, 22.42 92.41 3.87 44



Historial Predications of SNOs between AQUA and METOP-C
